Weather History for Alamogordo, NM

Change the Weather History Date:

Friday, March 1, 2013

  Actual Average Record
Temperature  
Mean Temperature 43 °F -  
Max Temperature 62 °F 66 °F 80 °F (2006)
Min Temperature 24 °F 37 °F 18 °F (1954)
Degree Days  
Heating Degree Days 22    
Moisture  
Dew Point 5 °F    
Average Humidity 20    
Maximum Humidity 31    
Minimum Humidity 12    
Precipitation  
Precipitation 0.00 in - - ()
Sea Level Pressure  
Sea Level Pressure 30.30 in    
Wind  
Wind Speed 9 mph (North)    
Max Wind Speed 22 mph    
Max Gust Speed 30 mph    
Visibility 10 miles    
Events      
Averages and records for this station are not official NWS values.
T = Trace of Precipitation, MM = Missing Value Source: NWS Daily Summary

Daily Weather History Graph

Daily Weather History Graph

Search for Another Location

Airport:

Trip Planner

Search our weather history database for the weather conditions in past years. The results will help you decide how hot, cold, wet, or windy it might be!

Date:

Astronomy

Mar. 01, 2013 Rise Set
Actual Time 6:31 AM MST 6:01 PM MST
Civil Twilight 6:06 AM MST 6:26 PM MST
Nautical Twilight 5:38 AM MST 6:54 PM MST
Astronomical Twilight 5:09 AM MST 7:23 PM MST
Moon 10:19 PM MST (3/1) 8:35 AM MST (3/1)
Length of Visible Light 12h 19m
Length of Day
11h 30m
Waning Gibbous, 83% of the Moon is Illuminated
Mar 1
Waning Gibbous
Mar 4
Last Quarter
Mar 11
New
Mar 19
First Quarter
Mar 27
Full

Hourly Weather History & Observations

Time (MST) Temp. Windchill Dew Point Humidity Pressure Visibility Wind Dir Wind Speed Gust Speed Precip Events Conditions
12:15 AM 32.0 °F 26.4 °F -5.8 °F 20% 30.29 in 10.0 mi ENE 5.8 mph - N/A   Clear
12:35 AM 32.0 °F 25.6 °F -4.0 °F 21% 30.29 in 10.0 mi NE 6.9 mph - N/A   Clear
1:15 AM 33.8 °F 25.8 °F -5.8 °F 18% 30.28 in 10.0 mi NE 10.4 mph - N/A   Clear
1:35 AM 35.6 °F 29.2 °F -4.0 °F 18% 30.27 in 10.0 mi NNE 8.1 mph - N/A   Clear
2:15 AM 24.8 °F 17.9 °F -5.8 °F 26% 30.27 in 10.0 mi SE 5.8 mph - N/A   Clear
2:35 AM 28.4 °F 24.6 °F -5.8 °F 23% 30.27 in 10.0 mi SE 3.5 mph - N/A   Clear
2:55 AM 28.4 °F 24.6 °F -7.6 °F 21% 30.26 in 10.0 mi ENE 3.5 mph - N/A   Clear
3:15 AM 28.4 °F 24.6 °F -7.6 °F 21% 30.26 in 10.0 mi NNE 3.5 mph - N/A   Clear
3:35 AM 28.4 °F 21.2 °F -4.0 °F 25% 30.26 in 10.0 mi North 6.9 mph - N/A   Clear
3:55 AM 32.0 °F 24.8 °F -2.2 °F 23% 30.27 in 10.0 mi NNE 8.1 mph - N/A   Clear
4:15 AM 32.0 °F 25.6 °F -2.2 °F 23% 30.28 in 10.0 mi North 6.9 mph - N/A   Clear
4:35 AM 26.6 °F 16.2 °F -4.0 °F 26% 30.28 in 10.0 mi North 11.5 mph - N/A   Clear
4:55 AM 35.6 °F 26.6 °F -2.2 °F 20% 30.29 in 10.0 mi North 13.8 mph - N/A   Clear
5:15 AM 37.4 °F 30.3 °F -2.2 °F 19% 30.29 in 10.0 mi NNW 10.4 mph - N/A   Clear
5:35 AM 33.8 °F 26.4 °F -2.2 °F 22% 30.29 in 10.0 mi North 9.2 mph - N/A   Clear
5:55 AM 33.8 °F 27.0 °F -0.4 °F 23% 30.30 in 10.0 mi North 8.1 mph - N/A   Clear
6:15 AM 32.0 °F 24.8 °F -0.4 °F 25% 30.30 in 10.0 mi NNE 8.1 mph - N/A   Clear
6:35 AM 37.4 °F 32.1 °F 1.4 °F 22% 30.31 in 10.0 mi NNE 6.9 mph - N/A   Clear
6:55 AM 32.0 °F 27.5 °F -0.4 °F 25% 30.32 in 10.0 mi SE 4.6 mph - N/A   Clear
7:15 AM 24.8 °F - -2.2 °F 31% 30.32 in 10.0 mi Calm Calm - N/A   Clear
7:35 AM 37.4 °F 31.4 °F 3.2 °F 24% 30.33 in 10.0 mi North 8.1 mph - N/A   Clear
7:55 AM 44.6 °F 39.7 °F 6.8 °F 21% 30.34 in 10.0 mi NNW 9.2 mph - N/A   Clear
8:15 AM 44.6 °F 38.8 °F 6.8 °F 21% 30.34 in 10.0 mi NW 11.5 mph - N/A   Clear
8:35 AM 46.4 °F 41.5 °F 6.8 °F 20% 30.35 in 10.0 mi NW 10.4 mph - N/A   Clear
8:55 AM 48.2 °F - 6.8 °F 19% 30.35 in 10.0 mi WNW 10.4 mph - N/A   Clear
9:15 AM 50.0 °F - 8.6 °F 19% 30.35 in 10.0 mi NW 15.0 mph - N/A   Clear
9:35 AM 51.8 °F - 10.4 °F 19% 30.35 in 10.0 mi NW 13.8 mph 23.0 mph N/A   Clear
9:55 AM 55.4 °F - 10.4 °F 17% 30.34 in 10.0 mi North 16.1 mph 23.0 mph N/A   Clear
10:15 AM 55.4 °F - 10.4 °F 17% 30.34 in 10.0 mi NNW 21.9 mph 29.9 mph N/A   Clear
10:35 AM 55.4 °F - 10.4 °F 17% 30.34 in 10.0 mi NNW 18.4 mph 27.6 mph N/A   Clear
10:55 AM 57.2 °F - 10.4 °F 16% 30.34 in 10.0 mi NW 19.6 mph 27.6 mph N/A   Clear
11:15 AM 57.2 °F - 10.4 °F 16% 30.35 in 10.0 mi NNW 16.1 mph 27.6 mph N/A   Clear
11:35 AM 57.2 °F - 10.4 °F 16% 30.34 in 10.0 mi North 18.4 mph 26.5 mph N/A   Clear
11:55 AM 59.0 °F - 10.4 °F 15% 30.34 in 10.0 mi NNW 17.3 mph 21.9 mph N/A   Clear
12:15 PM 59.0 °F - 10.4 °F 15% 30.33 in 10.0 mi North 15.0 mph 23.0 mph N/A   Clear
12:35 PM 60.8 °F - 10.4 °F 14% 30.32 in 10.0 mi WNW 13.8 mph 20.7 mph N/A   Clear
1:15 PM 62.6 °F - 10.4 °F 13% 30.30 in 10.0 mi NW 9.2 mph - N/A   Clear
1:35 PM 62.6 °F - 8.6 °F 12% 30.29 in 10.0 mi NW 11.5 mph - N/A   Clear
1:55 PM 62.6 °F - 8.6 °F 12% 30.29 in 10.0 mi NNW 6.9 mph - N/A   Clear
2:15 PM 62.6 °F - 10.4 °F 13% 30.29 in 10.0 mi West 10.4 mph 20.7 mph N/A   Clear
2:35 PM 62.6 °F - 10.4 °F 13% 30.28 in 10.0 mi NW 13.8 mph 19.6 mph N/A   Clear
2:55 PM 62.6 °F - 10.4 °F 13% 30.29 in 10.0 mi West 15.0 mph 18.4 mph N/A   Clear
3:15 PM 62.6 °F - 10.4 °F 13% 30.28 in 10.0 mi NW 15.0 mph 26.5 mph N/A   Clear
3:35 PM 62.6 °F - 10.4 °F 13% 30.28 in 10.0 mi WNW 17.3 mph 23.0 mph N/A   Clear
3:55 PM 62.6 °F - 10.4 °F 13% 30.27 in 10.0 mi WNW 12.7 mph 18.4 mph N/A   Clear
4:15 PM 62.6 °F - 10.4 °F 13% 30.27 in 10.0 mi NW 15.0 mph - N/A   Clear
4:35 PM 62.6 °F - 10.4 °F 13% 30.28 in 10.0 mi NNW 10.4 mph - N/A   Clear
4:55 PM 62.6 °F - 10.4 °F 13% 30.27 in 10.0 mi NW 12.7 mph 17.3 mph N/A   Clear
5:15 PM 60.8 °F - 10.4 °F 14% 30.27 in 9.0 mi NW 12.7 mph - N/A   Clear
5:35 PM 59.0 °F - 10.4 °F 15% 30.28 in 10.0 mi NNW 9.2 mph - N/A   Clear
5:55 PM 57.2 °F - 10.4 °F 16% 30.28 in 10.0 mi NW 5.8 mph - N/A   Clear
6:15 PM 55.4 °F - 10.4 °F 17% 30.28 in 10.0 mi Calm Calm - N/A   Clear
6:35 PM 53.6 °F - 8.6 °F 16% 30.28 in 10.0 mi NNW 4.6 mph - N/A   Clear
6:55 PM 50.0 °F - 8.6 °F 19% 30.28 in 10.0 mi NNE 4.6 mph - N/A   Clear
7:55 PM 48.2 °F - 8.6 °F 20% 30.28 in 10.0 mi NE 9.2 mph - N/A   Clear
8:35 PM 46.4 °F 43.5 °F 8.6 °F 22% 30.29 in 10.0 mi NNE 5.8 mph - N/A   Clear
8:55 PM 48.2 °F - 10.4 °F 22% 30.30 in 10.0 mi NNE 5.8 mph - N/A   Clear
9:15 PM 46.4 °F 41.9 °F 8.6 °F 22% 30.31 in 10.0 mi NNE 9.2 mph - N/A   Clear
9:35 PM 46.4 °F 42.4 °F 8.6 °F 22% 30.32 in 10.0 mi NE 8.1 mph - N/A   Clear
9:55 PM 41.0 °F 39.0 °F 8.6 °F 26% 30.32 in 10.0 mi South 3.5 mph - N/A   Clear
10:15 PM 35.6 °F 30.7 °F 6.8 °F 30% 30.33 in 10.0 mi ESE 5.8 mph - N/A   Clear
10:35 PM 37.4 °F 33.8 °F 5.0 °F 26% 30.33 in 10.0 mi SE 4.6 mph - N/A   Clear
10:55 PM 37.4 °F 34.9 °F 6.8 °F 28% 30.33 in 10.0 mi SSE 3.5 mph - N/A   Clear
11:15 PM 41.0 °F 39.0 °F 8.6 °F 26% 30.33 in 10.0 mi SE 3.5 mph - N/A   Clear
11:35 PM 39.2 °F 35.0 °F 6.8 °F 26% 30.34 in 10.0 mi ESE 5.8 mph - N/A   Clear
11:55 PM 39.2 °F 35.0 °F 8.6 °F 28% 30.35 in 10.0 mi SE 5.8 mph - N/A   Clear